Temperature
12 13 13 13 13 13 13 13 13 13 13 13 14 14 14 14 14 14 14 14 14 14 14 14 14 13 13 13 13 13 13 13 13 13 13 13 13 13 13 12 12 12 12
12 12 12 12 12 12 12 13 13 13 13 13 13 13 13 13 13 13 13 14 14 14 14 14 13 13 13 13 13 13 13 13 13 13 13 13 13 13 13 12 12 12 12
12 12 12 12 12 12 12 12 12 12 13 13 13 13 13 13 13 13 13 13 13 14 14 13 13 13 13 13 13 13 13 13 13 13 13 13 13 12 12 12 12 12 12
11 11 11 11 11 11 11 11 11 12 12 12 12 12 13 13 13 13 13 13 13 13 13 13 13 13 13 13 13 13 12 13 12 12 12 12 12 12 12 12 12 12 12
10 10 10 11 11 10 11 11 11 11 11 11 12 12 12 12 12 12 12 12 12 13 13 13 13 13 13 12 12 12 12 12 12 12 12 12 12 12 12 12 12 11 11
10 10 10 10 10 10 10 10 10 10 10 10 11 11 11 11 11 12 12 12 12 12 12 12 12 12 12 12 12 12 12 12 12 12 12 12 12 11 11 11 11 11 11
9 9 9 9 9 9 9 9 9 9 9 10 10 10 10 11 11 11 11 11 11 11 12 12 12 12 12 12 12 12 12 12 12 11 11 11 11 11 11 11 11 11 10
8 8 8 8 8 9 9 9 9 9 9 9 9 9 9 10 10 10 10 11 11 11 11 11 11 11 11 11 11 11 11 11 11 11 11 11 11 11 10 10 10 10 10
8 8 8 8 8 8 8 8 8 8 8 8 8 8 9 10 9 10 10 10 10 10 10 10 10 10 10 10 10 10 10 10 10 10 10 10 10 10 10 10 10 10 10
7 7 7 7 7 7 7 7 7 7 7 7 8 8 8 8 8 9 9 9 9 10 10 10 10 10 10 10 10 10 10 10 10 10 10 10 10 10 10 10 9 9 9
7 7 7 7 7 7 7 7 7 7 7 7 7 7 7 7 7 8 8 8 8 9 9 9 9 9 9 9 9 9 9 9 9 9 9 9 9 9 9 9 9 9 9
6 6 6 6 6 6 6 6 6 6 6 6 6 6 7 6 7 7 7 7 7 8 8 8 8 8 8 8 9 9 9 9 9 9 9 9 9 9 9 9 9 8 8
6 6 6 6 6 6 6 6 6 6 6 6 6 6 6 6 6 6 6 6 6 6 7 7 7 7 7 7 8 8 8 8 8 8 8 8 8 8 8 8 8 8 8
5 5 5 5 5 5 5 5 5 5 5 5 5 5 5 5 6 6 6 5 5 5 6 6 6 6 6 7 7 7 7 7 7 7 7 7 8 8 8 7 7 7 7
5 5 5 5 5 5 5 5 5 5 4 5 5 5 5 5 5 5 5 5 5 4 5 5 5 5 6 6 6 6 6 7 7 7 7 7 7 7 7 7 7 7 7
5 5 5 5 4 4 4 4 4 4 4 4 4 4 4 4 4 4 4 4 4 4 4 4 4 5 5 5 5 6 6 6 6 6 6 6 6 6 6 6 6 6 6
4 4 4 4 4 4 4 4 4 4 4 4 4 4 4 4 4 4 4 4 4 3 3 3 4 4 4 4 5 5 5 5 5 5 6 6 6 6 6 6 6 6 6
4 4 4 4 4 4 3 3 3 3 3 3 3 3 3 3 3 3 3 3 3 3 3 3 3 3 3 4 4 4 4 4 4 5 5 5 5 5 5 5 5 5 5
3 3 3 3 3 3 3 3 3 3 3 3 3 3 3 3 3 3 3 2 2 2 2 2 3 3 3 3 3 3 3 4 4 4 4 4 4 4 5 5 5 4 4
3 3 3 3 3 3 3 3 2 2 2 2 2 2 2 2 2 2 2 2 2 2 2 2 2 2 2 2 2 2 2 3 3 3 3 3 3 4 4 4 4 4 4
3 3 2 2 2 2 2 2 2 2 2 2 2 2 2 2 2 2 1 1 1 1 1 1 1 1 1 1 1 1 1 2 2 2 2 2 3 3 3 3 3 3 3
2 2 2 2 2 2 2 2 1 1 1 1 1 1 1 1 1 1 1 1 1 1 0 0 0 0 0 1 1 0 0 0 0 1 1 2 2 2 2 2 3 3 3
2 2 2 1 1 1 1 1 1 1 1 1 1 1 1 1 1 1 1 1 0 0 1 0 0 0 0 0 0 -0 -0 -0 -0 1 0 1 1 1 1 2 2 2 2
1 1 1 1 1 1 1 1 1 1 1 0 0 0 0 0 0 0 0 0 -0 -0 0 -0 -0 -0 -0 -0 -0 -0 -1 -1 -0 -0 -0 -0 0 0 1 1 2 2 2
1 1 1 0 0 0 0 0 0 -0 -0 -0 -0 -0 -0 -0 -0 -0 -0 -1 -1 -0 -0 -0 -0 -0 -1 -1 -1 -1 -1 -1 -1 -1 -1 -1 -1 -1 0 1 1 1 1
0 0 0 0 -0 -0 -0 -0 -1 -1 -1 -1 -1 -1 -1 -1 -1 -1 -1 -1 -1 -1 -1 -1 -1 -1 -1 -1 -1 -1 -1 -2 -2 -2 -2 -2 -2 -2 -1 -0 -0 0 0
Wind_Speed
4 4 5 5 6 6 6 7 7 8 8 9 10 10 10 11 10 10 9 11 14 14 14 14 14 14 14 14 13 13 12 11 11 11 11 10 10 10 9 9 9 9 9
5 5 5 5 5 6 6 7 8 8 7 7 9 10 11 11 11 11 10 11 14 15 15 15 15 15 15 14 14 13 13 12 12 11 11 12 11 11 11 10 10 10 10
5 5 5 5 5 6 7 7 8 7 7 7 9 10 10 11 10 11 11 10 11 14 15 16 15 16 15 15 14 14 13 13 12 12 12 12 12 12 12 12 11 12 11
6 5 5 5 5 6 6 6 6 6 7 7 8 8 8 9 11 11 10 10 10 10 13 16 16 15 15 15 14 14 13 13 13 13 13 13 12 12 13 13 13 13 13
6 5 4 5 5 5 5 5 6 6 7 7 7 7 8 9 9 10 10 10 10 10 10 12 15 15 14 15 15 14 13 13 13 14 14 14 13 13 13 13 13 14 14
6 5 4 5 5 5 5 5 6 6 6 6 7 7 8 8 8 9 10 9 9 10 11 10 11 12 13 13 13 13 13 13 13 13 14 14 14 14 14 14 14 14 14
6 5 4 5 5 5 5 6 6 6 6 5 6 7 7 8 9 8 8 8 8 9 10 10 10 10 9 12 13 12 11 12 13 13 13 14 14 15 15 15 15 15 15
6 5 5 5 5 5 6 5 5 5 5 5 5 5 5 6 7 7 6 7 8 7 8 8 8 9 8 8 8 11 11 12 13 13 14 14 14 15 16 16 16 15 15
6 5 5 5 5 5 5 5 5 6 6 6 5 5 4 5 4 5 7 6 6 6 6 6 7 8 8 7 7 8 9 11 13 13 13 13 13 15 16 16 15 14 15
6 6 5 5 5 5 5 5 5 6 6 6 6 6 6 5 5 4 4 5 5 5 6 5 5 6 6 6 6 6 7 9 12 13 14 14 14 15 15 15 16 15 15
6 6 5 5 5 5 5 6 5 6 6 6 6 6 7 6 7 6 6 5 5 5 5 6 5 5 5 6 6 7 7 9 12 14 15 15 15 15 15 15 16 16 16
5 6 6 5 5 5 5 6 6 6 6 7 6 6 6 6 6 6 6 6 6 5 5 5 6 5 5 5 6 5 7 9 11 14 15 16 15 16 16 16 16 16 16
5 6 6 5 5 5 6 6 5 5 6 7 7 6 6 7 6 6 6 6 6 5 5 5 5 5 5 5 6 6 8 9 11 13 15 16 16 15 15 16 16 16 15
5 6 6 6 6 6 6 5 5 5 5 6 7 7 6 6 6 6 6 6 6 6 6 6 4 5 4 5 6 8 9 10 11 12 14 15 14 14 15 16 16 15 14
5 6 6 6 6 6 6 6 5 5 5 6 6 7 7 6 6 6 6 6 7 7 7 5 4 4 5 6 7 8 10 9 11 13 14 14 14 14 14 15 15 15 14
6 6 6 6 6 5 5 5 5 5 6 6 5 7 7 6 6 6 6 6 7 7 7 5 5 6 6 6 8 9 10 11 12 13 14 14 14 14 14 14 15 15 14
6 6 6 6 6 5 5 5 5 5 6 6 6 6 7 7 6 5 6 6 6 6 8 7 6 6 7 7 7 8 9 10 10 12 14 15 15 14 14 14 14 14 14
6 6 6 6 6 5 5 5 5 6 7 7 7 7 7 5 7 6 6 7 7 7 7 8 7 6 8 7 8 8 8 9 9 11 12 14 14 14 14 14 13 13 13
6 6 6 6 5 5 5 5 6 6 7 7 7 7 6 6 7 6 7 7 6 6 6 7 7 7 7 6 7 8 8 8 9 10 11 12 13 14 15 14 13 13 13
5 5 6 5 5 5 5 5 6 6 6 6 6 6 6 6 7 7 7 7 7 7 7 7 6 6 6 6 6 7 7 7 8 8 9 10 12 14 14 14 14 13 13
5 5 5 5 5 4 5 5 5 6 6 6 6 6 6 6 7 7 6 7 7 7 7 6 6 6 6 6 6 6 8 8 9 7 7 8 8 9 9 12 13 13 13
5 5 5 5 5 4 6 7 6 5 5 5 5 5 5 6 7 8 9 9 9 9 8 8 7 8 9 8 7 7 7 8 8 5 7 9 8 9 9 9 11 13 13
5 5 5 5 5 6 7 7 7 5 5 5 6 6 5 5 7 7 8 9 9 11 11 10 10 10 10 9 8 8 9 9 10 8 8 10 8 9 8 10 13 13 13
4 4 5 5 5 6 7 8 8 6 5 5 6 6 6 7 6 7 7 7 8 8 9 9 10 10 10 9 9 9 9 9 9 8 7 8 8 9 9 9 11 12 13
4 5 5 5 6 6 6 7 8 5 5 6 6 6 7 7 7 8 7 7 7 7 6 8 9 10 11 11 9 7 6 6 8 7 6 6 7 9 9 8 8 10 11
5 5 5 5 6 6 7 7 8 5 5 5 5 6 6 7 8 8 7 7 7 7 6 6 7 7 8 8 8 8 7 7 7 6 4 5 6 6 6 6 6 7 8
Wind_Direction
270 267 264 260 255 251 245 244 243 243 242 238 235 236 235 234 234 231 228 208 215 225 230 232 233 233 231 229 228 226 223 223 226 228 230 233 239 244 250 256 260 261 263
278 274 268 265 264 259 257 253 249 247 245 244 241 239 238 237 236 235 234 218 213 222 229 232 234 235 234 233 231 227 226 226 228 231 234 237 239 243 249 253 258 261 263
282 276 273 269 269 266 262 259 254 251 249 247 246 244 242 239 236 235 235 234 224 221 227 233 236 237 235 234 232 231 230 228 230 232 234 238 242 245 249 251 255 259 261
288 282 276 272 274 268 266 262 258 251 249 248 251 249 243 241 240 238 235 235 235 232 226 228 233 235 235 235 232 232 233 231 231 234 237 240 243 247 251 252 254 257 259
301 294 284 281 277 269 265 264 261 259 258 255 254 253 248 241 240 238 237 237 236 237 236 224 223 230 235 236 234 234 237 237 237 238 240 242 245 248 251 255 258 259 258
314 305 292 287 282 270 266 264 264 261 264 263 261 258 254 246 242 239 238 238 238 237 238 236 227 227 227 231 233 235 238 240 241 242 243 244 247 251 254 255 258 261 262
315 306 295 290 283 271 267 266 267 265 264 270 268 267 262 250 242 238 237 238 236 237 237 238 234 229 225 221 223 231 237 242 243 245 247 249 250 253 255 258 260 262 262
313 306 296 287 280 273 268 267 267 266 264 257 257 266 263 255 240 237 236 236 238 235 236 238 243 237 234 226 219 221 235 246 246 247 249 251 253 255 257 257 259 262 265
316 309 301 292 286 277 271 269 263 259 261 260 250 247 253 249 269 239 240 238 240 240 239 240 242 248 242 232 227 224 230 244 249 249 251 255 257 259 259 259 260 262 266
324 314 304 297 290 282 273 270 265 262 257 256 253 247 255 268 255 250 239 244 248 251 253 247 243 241 244 240 235 237 240 245 253 255 257 259 260 262 264 264 263 262 264
325 323 312 302 292 285 279 273 268 260 254 251 250 250 250 258 259 253 254 252 256 258 262 252 244 245 248 250 246 247 248 249 256 260 262 262 262 263 265 268 268 266 265
319 324 321 309 299 291 283 277 270 263 258 254 251 248 247 243 249 251 255 258 260 262 266 256 245 243 245 252 259 273 271 260 260 263 264 264 265 266 266 268 270 271 269
311 316 316 310 303 296 287 279 271 266 261 257 254 250 250 247 251 256 260 266 268 272 262 256 251 245 251 262 262 279 270 263 264 268 269 267 265 265 266 268 269 270 270
304 308 308 304 300 293 286 277 269 265 262 259 258 256 253 252 250 250 253 260 268 266 258 260 264 247 260 268 269 273 266 263 266 269 269 269 269 268 268 267 268 267 268
301 305 304 303 301 296 287 280 269 266 264 262 261 259 256 254 250 251 252 250 250 257 258 262 262 247 273 274 272 272 271 268 269 267 267 266 267 269 267 268 268 268 268
301 300 301 299 297 294 289 280 274 265 264 264 263 260 259 257 252 252 250 249 249 253 260 267 276 287 281 278 276 278 277 279 271 266 268 268 270 271 266 265 266 265 266
301 300 300 297 296 294 286 278 275 271 265 264 263 262 263 259 253 251 249 247 249 251 260 273 280 282 283 278 283 283 279 276 273 271 269 269 267 266 264 264 267 266 266
301 303 301 295 293 290 285 279 277 273 266 264 262 261 261 256 253 251 247 245 247 251 258 270 278 279 281 274 276 278 280 279 279 274 272 270 268 267 264 265 268 270 271
307 309 307 298 293 292 289 285 282 279 270 266 266 263 261 256 255 255 254 252 251 253 256 259 271 279 280 272 277 278 282 282 283 277 273 270 268 269 267 265 267 269 272
311 313 314 308 303 302 299 296 291 289 283 274 268 266 263 258 259 263 260 260 259 258 256 252 263 272 274 273 272 277 284 284 284 283 274 276 273 268 265 264 264 265 268
317 317 317 318 317 312 308 305 302 296 293 289 279 270 266 263 265 264 263 262 259 257 257 255 261 271 271 269 268 274 278 286 284 275 277 276 275 268 266 263 259 261 269
317 318 321 323 323 322 320 311 306 297 293 289 288 287 280 271 272 270 269 264 259 254 253 256 262 260 265 267 270 269 274 282 284 273 282 280 273 269 266 263 265 268 269
312 313 317 318 317 320 322 318 313 304 295 293 291 288 286 283 279 275 274 271 267 262 255 253 256 258 264 263 264 267 268 272 276 282 284 280 276 272 271 268 265 264 269
303 306 309 309 308 314 323 322 320 307 300 296 292 290 286 284 281 283 279 274 272 272 266 260 257 261 264 264 259 261 266 276 282 278 271 276 282 281 280 269 260 261 270
295 300 300 303 305 310 320 322 320 308 299 297 295 294 288 284 286 287 279 273 274 277 281 277 278 274 270 269 266 262 263 270 279 276 270 270 281 291 281 267 260 260 268
287 294 295 296 299 303 313 317 319 307 300 300 302 304 298 296 300 297 283 275 277 285 290 290 284 281 273 266 262 254 252 258 276 274 260 269 278 290 283 270 272 270 268
Height
1516 1516 1516 1516 1516 1516 1517 1517 1518 1519 1519 1520 1520 1521 1522 1522 1523 1523 1524 1524 1525 1526 1527 1527 1528 1528 1529 1529 1530 1530 1530 1530 1530 1530 1530 1530 1530 1529 1529 1528 1527 1527 1526
1512 1512 1512 1512 1512 1512 1513 1513 1513 1514 1514 1515 1515 1516 1517 1517 1518 1519 1519 1520 1520 1521 1522 1523 1524 1524 1525 1525 1526 1526 1526 1527 1527 1527 1527 1527 1526 1526 1525 1525 1524 1524 1523
1508 1508 1508 1508 1508 1508 1508 1508 1509 1509 1509 1510 1510 1511 1512 1512 1513 1514 1514 1515 1515 1516 1517 1518 1519 1520 1520 1521 1521 1522 1522 1522 1523 1523 1523 1523 1523 1522 1522 1521 1521 1520 1519
1505 1504 1504 1504 1504 1504 1504 1504 1504 1504 1504 1505 1505 1506 1506 1507 1507 1508 1509 1510 1510 1511 1512 1513 1514 1515 1516 1516 1517 1517 1517 1518 1518 1518 1519 1519 1518 1518 1518 1517 1517 1516 1515
1501 1500 1500 1499 1499 1499 1499 1499 1500 1500 1500 1499 1500 1500 1501 1501 1501 1502 1503 1504 1505 1506 1507 1507 1508 1509 1510 1511 1512 1512 1512 1513 1513 1513 1513 1514 1514 1513 1513 1513 1512 1511 1510
1497 1496 1496 1496 1495 1495 1495 1495 1495 1495 1495 1495 1495 1495 1495 1495 1496 1496 1497 1498 1499 1500 1500 1502 1502 1503 1504 1505 1506 1506 1507 1507 1507 1508 1508 1508 1508 1508 1508 1508 1507 1506 1506
1493 1492 1492 1491 1491 1491 1490 1491 1491 1491 1490 1491 1491 1490 1490 1489 1490 1490 1491 1492 1493 1494 1495 1495 1496 1496 1497 1498 1499 1500 1501 1501 1501 1502 1502 1502 1502 1502 1502 1502 1502 1501 1500
1489 1489 1488 1487 1487 1487 1486 1486 1486 1486 1486 1486 1487 1487 1486 1486 1484 1485 1485 1486 1487 1488 1489 1489 1490 1490 1491 1492 1492 1493 1494 1495 1495 1496 1496 1496 1496 1496 1496 1496 1496 1495 1495
1485 1484 1484 1483 1482 1482 1482 1481 1482 1481 1481 1482 1482 1483 1482 1481 1480 1479 1480 1481 1481 1482 1483 1484 1484 1485 1485 1486 1486 1487 1488 1489 1489 1490 1490 1490 1490 1490 1490 1490 1489 1489 1488
1481 1480 1479 1478 1478 1478 1477 1477 1477 1477 1477 1477 1477 1477 1478 1478 1478 1475 1475 1476 1476 1476 1477 1478 1478 1479 1479 1480 1480 1481 1481 1482 1483 1483 1483 1484 1484 1483 1483 1483 1483 1482 1481
1477 1476 1475 1474 1473 1473 1472 1472 1472 1472 1472 1472 1472 1472 1472 1472 1472 1472 1470 1470 1471 1471 1471 1471 1472 1472 1473 1473 1474 1474 1474 1475 1476 1476 1476 1476 1477 1476 1476 1476 1476 1475 1474
1474 1473 1471 1470 1469 1468 1468 1467 1467 1467 1467 1467 1467 1467 1467 1467 1467 1467 1466 1465 1465 1465 1466 1466 1466 1466 1467 1467 1468 1467 1467 1468 1468 1469 1469 1469 1469 1469 1469 1469 1468 1468 1468
1471 1469 1468 1466 1465 1464 1463 1463 1462 1462 1462 1462 1462 1462 1462 1462 1462 1463 1462 1461 1460 1460 1461 1460 1460 1461 1461 1461 1461 1461 1461 1461 1461 1461 1461 1462 1462 1462 1462 1462 1461 1461 1460
1468 1466 1465 1463 1461 1460 1459 1458 1458 1457 1457 1457 1457 1457 1457 1457 1457 1457 1458 1457 1456 1455 1455 1455 1455 1455 1455 1455 1455 1455 1455 1455 1455 1454 1454 1454 1454 1454 1454 1454 1454 1454 1453
1465 1463 1461 1460 1458 1457 1455 1454 1453 1453 1453 1452 1452 1452 1452 1452 1452 1452 1452 1453 1454 1452 1450 1449 1449 1449 1449 1449 1449 1449 1449 1448 1448 1448 1448 1447 1447 1447 1446 1446 1447 1446 1446
1462 1460 1458 1456 1455 1453 1451 1450 1449 1448 1448 1448 1447 1447 1447 1447 1447 1447 1447 1447 1448 1447 1445 1444 1444 1444 1444 1443 1443 1443 1442 1442 1441 1441 1441 1440 1440 1439 1439 1439 1439 1439 1438
1459 1457 1455 1453 1451 1449 1448 1447 1445 1445 1444 1443 1443 1442 1442 1442 1442 1442 1442 1442 1442 1441 1440 1438 1439 1438 1438 1438 1437 1437 1436 1435 1435 1434 1434 1433 1432 1432 1432 1432 1431 1431 1430
1457 1455 1452 1450 1448 1446 1445 1443 1442 1441 1440 1439 1438 1437 1437 1437 1436 1436 1436 1436 1436 1435 1435 1433 1433 1432 1432 1432 1431 1431 1430 1429 1428 1427 1427 1426 1425 1425 1424 1424 1424 1423 1423
1454 1452 1449 1447 1445 1443 1442 1440 1438 1437 1436 1435 1434 1433 1432 1432 1431 1431 1431 1431 1430 1430 1430 1428 1427 1427 1426 1426 1426 1425 1424 1423 1422 1420 1419 1419 1418 1417 1417 1416 1416 1415 1415
1451 1449 1447 1444 1442 1440 1438 1437 1435 1433 1432 1431 1430 1428 1428 1427 1427 1426 1426 1426 1425 1425 1424 1423 1422 1421 1421 1420 1420 1419 1417 1416 1415 1414 1413 1412 1411 1410 1409 1409 1408 1408 1408
1448 1446 1444 1442 1440 1438 1435 1433 1432 1430 1428 1427 1425 1424 1423 1423 1422 1422 1421 1420 1420 1419 1418 1417 1416 1416 1415 1415 1414 1413 1412 1410 1408 1408 1406 1405 1404 1402 1402 1401 1401 1400 1400
1446 1444 1441 1439 1437 1435 1433 1431 1429 1427 1425 1423 1421 1420 1419 1419 1417 1416 1416 1415 1415 1414 1413 1412 1411 1410 1409 1409 1409 1408 1407 1405 1402 1402 1400 1398 1398 1395 1394 1394 1394 1393 1392
1443 1441 1439 1437 1435 1432 1430 1428 1426 1424 1422 1420 1418 1417 1415 1414 1413 1411 1410 1409 1409 1408 1408 1407 1406 1404 1404 1404 1403 1402 1401 1400 1397 1396 1395 1391 1391 1388 1388 1387 1387 1386 1385
1441 1439 1436 1434 1432 1429 1427 1425 1423 1421 1418 1416 1415 1413 1411 1409 1408 1406 1405 1403 1403 1402 1402 1401 1400 1399 1398 1398 1397 1396 1395 1393 1392 1391 1390 1386 1384 1382 1381 1380 1379 1378 1378
1438 1436 1434 1431 1429 1427 1424 1422 1420 1417 1415 1413 1411 1409 1407 1405 1403 1402 1400 1398 1397 1396 1396 1395 1394 1393 1392 1392 1391 1390 1389 1387 1385 1383 1384 1382 1378 1376 1374 1373 1372 1372 1371
1435 1433 1431 1428 1426 1424 1422 1419 1417 1414 1411 1409 1407 1405 1403 1401 1399 1398 1396 1394 1392 1391 1390 1389 1388 1387 1386 1385 1385 1384 1383 1382 1380 1377 1377 1376 1373 1372 1368 1366 1366 1366 1364